Location: Cossonay
(46.5833°N, 6.4167°E)
Time: 21:20:09
(UTC+00:00)

STARLINK-1257 - Visible Passes

Search period start: 01 October 2020 00:00
Search period end: 11 October 2020 00:00
Orbit: 549 x 550 km, 53.0° (Epoch: 01 October)

Date Brightness Start Highest point End Pass type
(mag) Time Alt. Az. Time Alt. Az. Time Alt. Az.
01 Oct 4.4 05:00:10 10° SW 05:04:11 52° SE 05:08:14 10° ENE visible
02 Oct 6.3 03:17:46 10° SSE 03:19:43 13° SE 03:21:39 10° E visible
02 Oct 3.9 04:54:32 10° SW 04:58:39 68° SE 05:02:46 10° ENE visible
03 Oct 5.8 03:12:59 16° SSE 03:14:04 17° SE 03:16:51 10° E visible
03 Oct 3.7 04:49:01 10° WSW 04:53:09 85° SSE 04:57:19 10° ENE visible
04 Oct 5.5 03:08:15 23° SE 03:08:31 23° SE 03:11:48 10° E visible
04 Oct 3.6 04:43:56 12° WSW 04:47:45 78° NNW 04:51:55 10° ENE visible
05 Oct 5.2 03:03:28 29° SE 03:03:28 29° SE 03:06:40 10° ENE visible
05 Oct 3.7 04:39:08 16° WSW 04:42:25 64° NNW 04:46:33 10° ENE visible
06 Oct 5.1 02:58:38 33° ESE 02:58:38 33° ESE 03:01:30 10° ENE visible
06 Oct 3.9 04:34:19 19° W 04:37:09 54° NNW 04:41:14 10° ENE visible
07 Oct 5.2 02:53:48 33° E 02:53:48 33° E 02:56:20 10° ENE visible
07 Oct 4.1 04:29:28 21° W 04:31:57 46° NNW 04:35:59 10° ENE visible
08 Oct 5.4 02:48:57 30° ENE 02:48:57 30° ENE 02:51:10 10° ENE visible
08 Oct 4.3 04:24:38 22° WNW 04:26:50 41° NNW 04:30:47 10° ENE visible
09 Oct 5.7 02:44:07 26° ENE 02:44:07 26° ENE 02:46:01 10° ENE visible
09 Oct 4.5 04:19:47 23° WNW 04:21:46 37° NNW 04:25:40 10° ENE visible
10 Oct 5.9 02:39:17 23° ENE 02:39:17 23° ENE 02:40:55 10° ENE visible
10 Oct 4.7 04:14:58 24° NW 04:16:46 35° N 04:20:37 10° ENE visible
